Вернуться в каталог

STARLINK-35667

АктивенСвязьVLEO
NORAD 66400·PAYLOAD·🇺🇸 United States

Запущен Nov 8, 2025 с Cape Canaveral Space Force Station

Loading…

Ближайшие Пролёты (ближайшие 24 часа)

TLE

СвежийSource: CelesTrak SupGP

Эпоха: Sep 15, 2026, 04:09 UTC

1 66400C 25257W   26258.17340278  .00000528  00000+0  15594-4 0  2582
2 66400  53.1584  52.7606 0000967  89.9570 228.2890 15.34377722    13

Отслеживайте STARLINK-35667 в реальном времени с AllMySat

Download on the App Store